sat.trackr.live / text

‹ back to catalog

CORVUS BC4

NORAD 43767 · 2018-099K

PAYLOAD ACTIVE UNKNOWN

§ Identity

Operator
Country
US
Launch date
2018-12-03
Launch site
AFWTR
Launch vehicle
Mass (kg)
RCS (m²)

Purposes: tech_demo

External: N2YO · Heavens-Above · Gunter

§ Orbital elements

Epoch: 2026-05-25T02:20:39.526944Z

Period
95.22 min
Inclination
97.4086°
Eccentricity
0.0010078
Mean motion
15.12274382 rev/d
Perigee alt
522.3 km
Apogee alt
536.2 km
Semi-major
6,907.4 km
B*
2.0315e-4
RAAN
188.7558°
Arg perigee
83.8816°
Mean anomaly
276.3563°
Rev number
40,891

§ Raw data

CORVUS BC41 43767U 18099K   26145.09767971  .00003455  00000+0  20315-3 0  99982 43767  97.4086 188.7558 0010078  83.8816 276.3563 15.12274382408914

JSON: /api/v1/satellites/43767 · /tle

For live sub-satellite position, see the globe view (requires WebGL).

§ Visibility from observer

Set your observer location to see the next 7 days of passes ≥ 10°. The values pass through the URL so the page stays shareable.

No JS? Fill the form by hand. The geolocation button needs JavaScript.

§ Radio — SatNOGS DB

ModeDescriptionDownlinkUplink
FM Mode U - Unknown 400.175 MHz

1 transmitter · refreshed weekly from db.satnogs.org